Auburn-Lewiston, ME

3:10 PM EDT on March 24, 2017 (GMT -0400)
Auburn-Lewiston Municipal

Weather History for KLEW - December, 2012

Change the Weather History Date:

Thursday, December 6, 2012

  Actual Average Record
Temperature  
Mean Temperature 28 °F -  
Max Temperature 37 °F 37 °F 66 °F (2001)
Min Temperature 19 °F 20 °F 8 °F (2004)
Degree Days  
Heating Degree Days 37    
Moisture  
Dew Point 13 °F    
Average Humidity 54    
Maximum Humidity 86    
Minimum Humidity 33    
Precipitation  
Precipitation 0.00 in - - ()
Sea Level Pressure  
Sea Level Pressure 30.24 in    
Wind  
Wind Speed 10 mph (NNW)    
Max Wind Speed 21 mph    
Max Gust Speed 30 mph    
Visibility 10 miles    
Events      
Averages and records for this station are not official NWS values.
T = Trace of Precipitation, MM = Missing Value Source: NWS Daily Summary

Daily Weather History Graph

Daily Weather History Graph

Search for Another Location

Airport or City:

Trip Planner

Search our weather history database for the weather conditions in past years. The results will help you decide how hot, cold, wet, or windy it might be!

Date:

Astronomy

Dec. 06, 2012 Rise Set
Actual Time 7:01 AM EST 4:02 PM EST
Civil Twilight 6:28 AM EST 4:35 PM EST
Nautical Twilight 5:52 AM EST 5:11 PM EST
Astronomical Twilight 5:17 AM EST 5:46 PM EST
Moon No Moon Rise 11:40 AM EST (12/6)
Length of Visible Light 10h 06m
Length of Day
9h 01m
Waning Gibbous, 49% of the Moon is Illuminated
Dec 6
Waning Gibbous
Dec 13
New
Dec 20
First Quarter
Dec 28
Full
Jan 4
Last Quarter

Hourly Weather History & Observations

Time (EST) Temp. Windchill Dew Point Humidity Pressure Visibility Wind Dir Wind Speed Gust Speed Precip Events Conditions
12:15 AM 30.2 °F 18.9 °F 14.0 °F 51% 30.06 in 10.0 mi NNW 16.1 mph 27.6 mph N/A   Mostly Cloudy
12:35 AM 30.2 °F 19.8 °F 14.0 °F 51% 30.07 in 10.0 mi NNW 13.8 mph 20.7 mph N/A   Scattered Clouds
12:55 AM 30.2 °F 20.2 °F 14.0 °F 51% 30.07 in 10.0 mi NNW 12.7 mph 21.9 mph N/A   Mostly Cloudy
1:35 AM 30.2 °F 17.4 °F 15.8 °F 55% 30.10 in 10.0 mi NNW 20.7 mph 29.9 mph N/A   Partly Cloudy
2:35 AM 30.2 °F 19.3 °F 12.2 °F 47% 30.11 in 10.0 mi NNW 15.0 mph 24.2 mph N/A   Clear
4:35 AM 28.4 °F 15.4 °F 12.2 °F 51% 30.16 in 10.0 mi NNW 19.6 mph 24.2 mph N/A   Clear
4:55 AM 28.4 °F 15.4 °F 12.2 °F 51% 30.16 in 10.0 mi NNW 19.6 mph 25.3 mph N/A   Clear
5:15 AM 28.4 °F 18.0 °F 12.2 °F 51% 30.17 in 10.0 mi NNW 12.7 mph 24.2 mph N/A   Clear
5:35 AM 28.4 °F 16.2 °F 12.2 °F 51% 30.18 in 10.0 mi NNW 17.3 mph 23.0 mph N/A   Clear
5:55 AM 28.4 °F 18.0 °F 12.2 °F 51% 30.18 in 10.0 mi NNW 12.7 mph 24.2 mph N/A   Clear
6:15 AM 28.4 °F 17.5 °F 12.2 °F 51% 30.20 in 10.0 mi NNW 13.8 mph 23.0 mph N/A   Clear
6:35 AM 26.6 °F 16.8 °F 12.2 °F 55% 30.21 in 10.0 mi NW 10.4 mph - N/A   Clear
7:15 AM 26.6 °F 18.2 °F 12.2 °F 55% 30.22 in 10.0 mi NNW 8.1 mph - N/A   Clear
7:35 AM 26.6 °F 18.2 °F 14.0 °F 59% 30.23 in 10.0 mi NW 8.1 mph - N/A   Clear
7:55 AM 26.6 °F 16.8 °F 12.2 °F 55% 30.23 in 10.0 mi NW 10.4 mph - N/A   Clear
8:15 AM 28.4 °F 19.1 °F 14.0 °F 55% 30.24 in 10.0 mi NW 10.4 mph - N/A   Clear
8:35 AM 28.4 °F 21.2 °F 14.0 °F 55% 30.25 in 10.0 mi NNW 6.9 mph - N/A   Clear
8:55 AM 28.4 °F 19.7 °F 14.0 °F 55% 30.25 in 10.0 mi NNW 9.2 mph - N/A   Clear
9:15 AM 30.2 °F 19.8 °F 12.2 °F 47% 30.26 in 10.0 mi NNW 13.8 mph - N/A   Clear
9:35 AM 30.2 °F 21.9 °F 15.8 °F 55% 30.27 in 10.0 mi NW 9.2 mph - N/A   Clear
9:55 AM 30.2 °F 20.2 °F 12.2 °F 47% 30.28 in 10.0 mi NW 12.7 mph 18.4 mph N/A   Clear
10:15 AM 32.0 °F 22.1 °F 12.2 °F 44% 30.28 in 10.0 mi NNW 13.8 mph - N/A   Clear
10:35 AM 33.8 °F 27.0 °F 14.0 °F 44% 30.27 in 10.0 mi NW 8.1 mph - N/A   Clear
10:55 AM 33.8 °F 26.4 °F 12.2 °F 41% 30.26 in 10.0 mi NNW 9.2 mph - N/A   Clear
11:15 AM 33.8 °F 24.8 °F 14.0 °F 44% 30.26 in 10.0 mi NNW 12.7 mph - N/A   Clear
11:35 AM 33.8 °F 25.8 °F 12.2 °F 41% 30.25 in 10.0 mi WNW 10.4 mph 19.6 mph N/A   Clear
11:55 AM 35.6 °F 26.2 °F 12.2 °F 38% 30.25 in 10.0 mi NNW 15.0 mph 19.6 mph N/A   Clear
12:15 PM 35.6 °F 26.2 °F 12.2 °F 38% 30.24 in 10.0 mi NNW 15.0 mph - N/A   Clear
12:35 PM 35.6 °F 28.0 °F 12.2 °F 38% 30.23 in 10.0 mi North 10.4 mph - N/A   Clear
12:55 PM 35.6 °F 27.1 °F 12.2 °F 38% 30.22 in 10.0 mi NNW 12.7 mph 16.1 mph N/A   Clear
1:16 PM 35.6 °F 28.6 °F 12.2 °F 38% 30.22 in 10.0 mi NNW 9.2 mph - N/A   Clear
1:55 PM 37.4 °F 30.3 °F 14.0 °F 38% 30.22 in 10.0 mi NNE 10.4 mph - N/A   Clear
2:15 PM 37.4 °F 31.4 °F 12.2 °F 36% 30.23 in 10.0 mi North 8.1 mph - N/A   Clear
2:35 PM 37.4 °F 32.1 °F 12.2 °F 36% 30.24 in 10.0 mi North 6.9 mph - N/A   Clear
2:55 PM 37.4 °F 33.8 °F 12.2 °F 36% 30.24 in 10.0 mi NNE 4.6 mph - N/A   Clear
3:15 PM 37.4 °F - 10.4 °F 33% 30.25 in 10.0 mi Calm Calm - N/A   Clear
3:35 PM 37.4 °F 32.8 °F 12.2 °F 36% 30.25 in 10.0 mi WNW 5.8 mph - N/A   Clear
3:55 PM 35.6 °F 32.8 °F 10.4 °F 35% 30.26 in 10.0 mi NNW 3.5 mph - N/A   Clear
4:15 PM 35.6 °F 30.7 °F 10.4 °F 35% 30.26 in 10.0 mi North 5.8 mph - N/A   Clear
4:35 PM 33.8 °F 29.6 °F 10.4 °F 38% 30.26 in 10.0 mi NNE 4.6 mph - N/A   Clear
4:55 PM 30.2 °F - 10.4 °F 44% 30.26 in 10.0 mi Calm Calm - N/A   Clear
5:16 PM 28.4 °F - 12.2 °F 51% 30.26 in 10.0 mi Calm Calm - N/A   Clear
5:35 PM 28.4 °F 23.3 °F 14.0 °F 55% 30.26 in 10.0 mi NNW 4.6 mph - N/A   Clear
5:55 PM 26.6 °F - 14.0 °F 59% 30.27 in 10.0 mi Calm Calm - N/A   Clear
6:15 PM 28.4 °F - 12.2 °F 51% 30.27 in 10.0 mi Calm Calm - N/A   Clear
6:35 PM 24.8 °F 20.5 °F 12.2 °F 59% 30.26 in 10.0 mi ENE 3.5 mph - N/A   Clear
6:55 PM 24.8 °F - 15.8 °F 69% 30.28 in 10.0 mi Calm Calm - N/A   Clear
7:15 PM 24.8 °F - 15.8 °F 69% 30.28 in 10.0 mi Calm Calm - N/A   Clear
7:35 PM 26.6 °F - 15.8 °F 64% 30.27 in 10.0 mi Calm Calm - N/A   Clear
7:55 PM 21.2 °F - 12.2 °F 68% 30.28 in 10.0 mi Calm Calm - N/A   Clear
8:15 PM 24.8 °F - 14.0 °F 64% 30.28 in 10.0 mi Calm Calm - N/A   Clear
8:35 PM 21.2 °F - 14.0 °F 74% 30.28 in 10.0 mi Calm Calm - N/A   Clear
8:55 PM 23.0 °F - 15.8 °F 74% 30.28 in 10.0 mi Calm Calm - N/A   Clear
9:35 PM 21.2 °F - 15.8 °F 80% 30.28 in 10.0 mi Calm Calm - N/A   Clear
9:55 PM 21.2 °F - 15.8 °F 80% 30.28 in 10.0 mi Calm Calm - N/A   Clear
10:15 PM 21.2 °F - 15.8 °F 80% 30.28 in 10.0 mi Calm Calm - N/A   Clear
10:35 PM 21.2 °F - 15.8 °F 80% 30.28 in 9.0 mi Calm Calm - N/A   Clear
10:55 PM 19.4 °F - 15.8 °F 86% 30.28 in 10.0 mi Calm Calm - N/A   Clear
11:15 PM 19.4 °F - 15.8 °F 86% 30.28 in 10.0 mi Calm Calm - N/A   Clear
11:35 PM 21.2 °F - 15.8 °F 80% 30.28 in 10.0 mi Calm Calm - N/A   Clear
11:55 PM 21.2 °F - 17.6 °F 86% 30.27 in 10.0 mi Calm Calm - N/A   Clear